Regional Weather Roundup
Issued by NWS

Home | Current Version | Previous Version | Graphics & Text | Print | Product List | Glossary On
Versions: 1 2 3 4 5 6 7 8 9 10 11 12 13 14 15 16 17 18 19 20 21 22 23 24 25 26 27 28 29 30 31 32 33 34 35 36 37 38 39 40 41 42 43 44 45 46 47 48 49 50
781
ASUS44 KLIX 181608
RWRLA
LOUISIANA WEATHER ROUNDUP
NATIONAL WEATHER SERVICE NEW ORLEANS LA
1100 AM CDT SAT APR 18 2015

NOTE: "FAIR" INDICATES FEW OR NO CLOUDS BELOW 12,000 FEET WITH NO
      SIGNIFICANT WEATHER AND/OR OBSTRUCTIONS TO VISIBILITY.
      SKY/WX - SKY CONDITION AND SIGNIFICANT WEATHER.
      TMP - AIR TEMPERATURE.    DP   - DEWPOINT TEMPERATURE.
      RH  - RELATIVE HUMIDITY.  PRES - PRESSURE.
      HX  - HEAT INDEX.         WCI  - WIND CHILL INDEX.

*  THESE STATIONS ARE NOT NWS OR FAA STATIONS AND ARE NOT UNDER
   NWS QUALITY CONTROL.

LAZ040-048-061>063-065-066-069-181700-
SOUTHEAST LOUISIANA

CITY           SKY/WX    TMP DP  RH WIND       PRES   REMARKS
N.O. AUDUBON     N/A     70  70 100 MISG        N/A
N.O. INTL ARPT CLOUDY    72  67  84 SE8       29.92F
N.O. LAKEFRONT CLOUDY    74  69  85 SE8       29.93F
SLIDELL        LGT RAIN  70  70 100 SE5       29.93F
BATON ROUGE    CLOUDY    73  68  84 SE9G18    29.89S
BOOTHVILLE     RAIN      69  69 100 NW8       29.99R FOG
BELLE CHASSE   LGT RAIN  70  67  90 E7        29.92F
BOGALUSA*      LGT RAIN  72  68  88 S10       29.95F
GALLIANO*      CLOUDY    67  66  97 CALM      29.93F
NEW ROADS*     PTSUNNY   73  69  87 E12       29.89F
GONZALES*      FAIR      73  72  97 E13       29.89F
HAMMOND*       CLOUDY    73  68  83 S9        29.93S
HOUMA*         PTSUNNY   72  68  88 E14       29.91F
PORT FOURCHON* PTSUNNY   70  68  94 E10       30.00F

$$

LAZ041-044-053-054-181700-
SOUTHWEST LOUISIANA

CITY           SKY/WX    TMP DP  RH WIND       PRES   REMARKS
LAKE CHARLES   CLOUDY    72  67  84 SE8       29.89F
LAFAYETTE      CLOUDY    74  68  81 SE8       29.89S
PATTERSON      CLOUDY    72  66  83 E14       29.90S
SALT POINT       N/A     73  69  87 SE13G21   29.87F
NEW IBERIA     CLOUDY    75  69  81 SE13      29.89S
CHENAULT AIRPK CLOUDY    72  66  83 SE9       29.91R

$$

LAZ027-028-181700-
CENTRAL LOUISIANA

CITY           SKY/WX    TMP DP  RH WIND       PRES   REMARKS
FORT POLK      CLOUDY    69  66  89 E7        29.89F
ALEXANDRIA INT LGT RAIN  69  66  90 S6        29.90R
ALEXANDRIA     CLOUDY    69  65  86 S3        29.92R

$$

LAZ001-002-181700-
NORTHWEST LOUISIANA

CITY           SKY/WX    TMP DP  RH WIND       PRES   REMARKS
SHREVEPORT     CLOUDY    69  67  93 CALM      29.90R
BARKSDALE AFB  CLOUDY    68  68  98 SE1       29.90S
DTN SHREVEPORT CLOUDY    68  65  90 CALM      29.91S

$$

LAZ014-016-181700-
NORTHEAST LOUISIANA

CITY           SKY/WX    TMP DP  RH WIND       PRES   REMARKS
MONROE         CLOUDY    70  66  87 E3        29.92F
TALLULAH       CLOUDY    69  64  84 S7        29.95R

$$




USA.gov is the U.S. government's official web portal to all federal, state and local government web resources and services.